|
CZ-2D R/B - Orbit
|
Dakota Wesleyan University Observatory;
16:04:38
| Home | Info | Passes |
|
View from above orbital plane
|
View from above satellite
|
Ground track
|
The orbit data is extracted from the following two-line orbital elements,
1 33435U 08056C 13028.85677815 .24260280 28696-5 12742-3 0 5577
2 33435 097.8674 162.4892 0013639 017.6943 342.9123 16.55157719235129
| Epoch (UTC): | 28 January 2013 20:33:45 |
| Eccentricity: | 0.0013639 |
| inclination: | 97.8674° |
| perigee height: | 117 km |
| apogee height: | 134 km |
| right ascension of ascending node: | 162.4892° |
| argument of perigee: | 17.6943° |
| revolutions per day: | 16.55157719 |
| mean anomaly at epoch: | 342.9123° |
| orbit number at epoch: | 23512 |
The dashed part of the orbit path shows where the satellite is in the earth's shadow,
|
|